Regional Weather Roundup
Issued by NWS

Home | Current Version | Previous Version | Text Only | Print | Product List | Glossary Off
Versions: 1 2 3 4 5 6 7 8 9 10 11 12 13 14 15 16 17 18 19 20 21 22 23 24 25 26 27 28 29 30 31 32 33 34 35 36 37 38 39 40 41 42 43 44 45 46 47 48 49 50

000
ASUS43 KTOP 281908
RWRKS

WEATHER ROUNDUP FOR KANSAS
NATIONAL WEATHER SERVICE GOODLAND KS
100 PM CST WED JAN 28 2015

NOTE:  "FAIR" INDICATES FEW OR NO CLOUDS BELOW 12,000 FEET WITH NO
SIGNIFICANT WEATHER AND/OR OBSTRUCTIONS TO VISIBILITY.

KSZ001>006-013>018-027>032-041>047-282000-
NORTHWEST KANSAS

CITY           SKY/WX    TMP DP  RH WIND       PRES   REMARKS
GOODLAND       SUNNY     64  28  25 NW32G41   29.94F
HAYS           PTSUNNY   70  30  23 N28G40    29.82F
HILL CITY      MOSUNNY   68  31  25 NW30G39   29.84F
RUSSELL        MOSUNNY   71  31  22 NW29G35   29.79F
$$

KSZ061>065-074>080-084>089-282000-
SOUTHWEST KANSAS

CITY           SKY/WX    TMP DP  RH WIND       PRES   REMARKS
DODGE CITY     PTSUNNY   70  27  20 N22G33    29.88F
ELKHART          N/A     66  30  26 N13         N/A
GARDEN CITY    FAIR      66  28  24 NW30G37   29.92F
LIBERAL        MOSUNNY   68  36  30 N22G29    29.97F
PRATT          PTSUNNY   68  32  26 N21       29.85F
$$

KSZ066>073-081>083-090>101-282000-
SOUTHEAST KANSAS

CITY           SKY/WX    TMP DP  RH WIND       PRES   REMARKS
CHANUTE        MOSUNNY   73  39  29 S24G31    29.85F
COFFEYVILLE    SUNNY     71  40  32 S20G30    29.88F
HUTCHINSON     PTSUNNY   66  35  31 W12       29.81F
MEDICINE LODGE   N/A     64  36  35 W9        29.84F
NEWTON         PTSUNNY   64  37  36 SW20G28   29.82F
PARSONS        SUNNY     71  40  32 S14G28    29.87F
WICHITA INTL   CLOUDY    68  37  32 SW21      29.83F
WICHITA JABRA  PTSUNNY   68  38  33 SW18      29.82F
WICHITA MCCONL PTSUNNY   69  40  34 SW16G25   29.83F
WINFIELD       MOSUNNY   75  37  25 SW25G35   29.83F
$$

KSZ007>012-019>026-033>040-048>060-102>105-282000-
NORTHEAST KANSAS

CITY           SKY/WX    TMP DP  RH WIND       PRES   REMARKS
CONCORDIA      PTSUNNY   57  34  41 W9        29.75F
EMPORIA        MOSUNNY   76  35  22 SW28G35   29.77F
LAWRENCE       MOSUNNY   72  37  28 S17G26    29.77F
MANHATTAN      PTSUNNY   70  38  31 SW20      29.73F
MARYSVILLE     PTSUNNY   63  37  39 SW13G18   29.74S
OLATHE IND     MOSUNNY   71  38  29 S15G25    29.81F
OLATHE EXE     SUNNY     71  37  28 S21G28    29.80F
SALINA         PTSUNNY   64  35  34 SW8       29.78F
TOPEKA BILLARD MOSUNNY   72  37  28 S15G25    29.76F
TOPEKA FORBES  MOSUNNY   73  36  25 S21G28    29.76F
$$


USA.gov is the U.S. government's official web portal to all federal, state and local government web resources and services.